Stündliche Wetter Kyshchyntsi

Heute, 10 Mai, Montag

Zeit Temperatur Niederschläge Wind Luftdruck Luftfeuchtigkeit
00:00 +6°C° 0 mm 1 m/S 750 mmHg 70%
01:00 +6°C° 0 mm 1 m/S 750 mmHg 72%
02:00 +6°C° 0 mm 1 m/S 751 mmHg 74%
03:00 +6°C° 0 mm 1 m/S 751 mmHg 75%
04:00 +6°C° 0 mm 1 m/S 751 mmHg 76%
05:00 +6°C° 0 mm 1 m/S 751 mmHg 77%
06:00 +8°C° 0 mm 1 m/S 751 mmHg 71%
07:00 +10°C° 0 mm 1 m/S 751 mmHg 66%
08:00 +12°C° 0 mm 2 m/S 751 mmHg 61%
09:00 +13°C° 0 mm 2 m/S 751 mmHg 57%
10:00 +14°C° 0 mm 2 m/S 751 mmHg 52%
11:00 +16°C° 0 mm 2 m/S 751 mmHg 48%
12:00 +16°C° 0 mm 2 m/S 751 mmHg 47%
13:00 +17°C° 0 mm 2 m/S 751 mmHg 45%
14:00 +17°C° 0 mm 2 m/S 750 mmHg 44%
15:00 +17°C° 0 mm 2 m/S 750 mmHg 46%
16:00 +17°C° 0 mm 2 m/S 750 mmHg 48%
17:00 +16°C° 0 mm 2 m/S 749 mmHg 49%
18:00 +14°C° 0 mm 2 m/S 750 mmHg 55%
19:00 +12°C° 0 mm 2 m/S 750 mmHg 61%
20:00 +9°C° 0 mm 3 m/S 750 mmHg 68%
21:00 +8°C° 0 mm 2 m/S 750 mmHg 68%
22:00 +8°C° 0 mm 2 m/S 750 mmHg 69%
23:00 +7°C° 0 mm 2 m/S 750 mmHg 70%

Morgen, 11 Mai, Dienstag

Zeit Temperatur Niederschläge Wind Luftdruck Luftfeuchtigkeit
00:00 +7°C° 0 mm 2 m/S 749 mmHg 72%
01:00 +6°C° 0 mm 2 m/S 749 mmHg 73%
02:00 +6°C° 0 mm 2 m/S 749 mmHg 74%
03:00 +6°C° 0 mm 2 m/S 749 mmHg 76%
04:00 +6°C° 0 mm 2 m/S 749 mmHg 77%
05:00 +4°C° 0 mm 3 m/S 749 mmHg 78%
06:00 +7°C° 0 mm 3 m/S 748 mmHg 72%
07:00 +8°C° 0 mm 4 m/S 748 mmHg 65%
08:00 +11°C° 0 mm 4 m/S 748 mmHg 59%
09:00 +13°C° 0 mm 4 m/S 748 mmHg 59%
10:00 +14°C° 0 mm 4 m/S 748 mmHg 59%
11:00 +15°C° 0 mm 4 m/S 747 mmHg 59%
12:00 +16°C° 0 mm 5 m/S 747 mmHg 59%
13:00 +19°C° 0 mm 5 m/S 747 mmHg 58%
14:00 +20°C° 0 mm 5 m/S 746 mmHg 58%
15:00 +20°C° 0 mm 5 m/S 746 mmHg 62%
16:00 +20°C° 0 mm 5 m/S 746 mmHg 65%
17:00 +20°C° 0 mm 4 m/S 745 mmHg 69%
18:00 +18°C° 0.1 mm 4 m/S 745 mmHg 76%
19:00 +15°C° 0.1 mm 4 m/S 745 mmHg 84%
20:00 +13°C° 0.1 mm 3 m/S 745 mmHg 91%
21:00 +12°C° 0 mm 4 m/S 745 mmHg 91%
22:00 +10°C° 0 mm 4 m/S 745 mmHg 92%
23:00 +8°C° 0 mm 4 m/S 746 mmHg 93%

übermorgen, 12 Mai, Mittwoch

Zeit Temperatur Niederschläge Wind Luftdruck Luftfeuchtigkeit
00:00 +7°C° 0 mm 4 m/S 746 mmHg 94%
01:00 +6°C° 0 mm 4 m/S 745 mmHg 95%
02:00 +5°C° 0 mm 4 m/S 745 mmHg 96%
03:00 +5°C° 0 mm 4 m/S 745 mmHg 95%
04:00 +5°C° 0 mm 4 m/S 745 mmHg 94%
05:00 +5°C° 0 mm 5 m/S 745 mmHg 93%
06:00 +5°C° 0 mm 5 m/S 746 mmHg 89%
07:00 +6°C° 0 mm 5 m/S 746 mmHg 86%
08:00 +7°C° 0 mm 5 m/S 746 mmHg 83%
09:00 +8°C° 0.1 mm 5 m/S 745 mmHg 79%
10:00 +9°C° 0.1 mm 5 m/S 745 mmHg 76%
11:00 +10°C° 0.1 mm 6 m/S 745 mmHg 72%
12:00 +10°C° 0.1 mm 6 m/S 744 mmHg 70%
13:00 +12°C° 0.1 mm 5 m/S 744 mmHg 69%
14:00 +13°C° 0.1 mm 5 m/S 744 mmHg 67%
15:00 +13°C° 0 mm 5 m/S 743 mmHg 67%
16:00 +13°C° 0 mm 4 m/S 743 mmHg 67%
17:00 +13°C° 0 mm 4 m/S 743 mmHg 67%
18:00 +11°C° 0 mm 3 m/S 742 mmHg 73%
19:00 +10°C° 0 mm 3 m/S 742 mmHg 79%
20:00 +8°C° 0 mm 2 m/S 742 mmHg 86%
21:00 +8°C° 0 mm 2 m/S 741 mmHg 87%
22:00 +7°C° 0 mm 2 m/S 741 mmHg 89%
23:00 +7°C° 0 mm 2 m/S 741 mmHg 90%

13 Mai, Donnerstag

Zeit Temperatur Niederschläge Wind Luftdruck Luftfeuchtigkeit
00:00 +7°C° 0 mm 2 m/S 741 mmHg 91%
01:00 +6°C° 0 mm 2 m/S 740 mmHg 92%
02:00 +6°C° 0 mm 2 m/S 740 mmHg 93%
03:00 +6°C° 0 mm 2 m/S 740 mmHg 93%
04:00 +5°C° 0 mm 3 m/S 740 mmHg 92%
05:00 +4°C° 0 mm 3 m/S 740 mmHg 92%
06:00 +7°C° 0 mm 3 m/S 740 mmHg 85%
07:00 +8°C° 0 mm 4 m/S 740 mmHg 77%
08:00 +11°C° 0 mm 4 m/S 740 mmHg 69%
09:00 +12°C° 0 mm 5 m/S 740 mmHg 65%
10:00 +14°C° 0 mm 5 m/S 740 mmHg 60%
11:00 +15°C° 0 mm 6 m/S 740 mmHg 56%
12:00 +15°C° 0 mm 5 m/S 740 mmHg 56%
13:00 +16°C° 0 mm 5 m/S 740 mmHg 56%
14:00 +16°C° 0 mm 5 m/S 739 mmHg 56%
15:00 +16°C° 0 mm 5 m/S 739 mmHg 59%
16:00 +16°C° 0 mm 5 m/S 739 mmHg 63%
17:00 +17°C° 0 mm 4 m/S 739 mmHg 66%
18:00 +14°C° 0.2 mm 3 m/S 739 mmHg 74%
19:00 +13°C° 0.2 mm 3 m/S 739 mmHg 81%
20:00 +12°C° 0.2 mm 2 m/S 739 mmHg 88%
21:00 +12°C° 0.1 mm 2 m/S 739 mmHg 88%
22:00 +11°C° 0.1 mm 3 m/S 739 mmHg 89%
23:00 +10°C° 0.1 mm 3 m/S 739 mmHg 89%

14 Mai, Freitag

Zeit Temperatur Niederschläge Wind Luftdruck Luftfeuchtigkeit
00:00 +10°C° 0.3 mm 3 m/S 739 mmHg 91%
01:00 +10°C° 0.3 mm 3 m/S 738 mmHg 94%
02:00 +10°C° 0.3 mm 3 m/S 738 mmHg 96%
03:00 +10°C° 0.5 mm 3 m/S 738 mmHg 96%
04:00 +10°C° 0.5 mm 2 m/S 738 mmHg 97%
05:00 +10°C° 0.5 mm 2 m/S 738 mmHg 97%
06:00 +12°C° 0.3 mm 2 m/S 738 mmHg 95%
07:00 +13°C° 0.3 mm 2 m/S 738 mmHg 93%
08:00 +14°C° 0.3 mm 2 m/S 738 mmHg 91%
09:00 +16°C° 0 mm 3 m/S 738 mmHg 82%
10:00 +17°C° 0 mm 3 m/S 738 mmHg 73%
11:00 +19°C° 0 mm 4 m/S 738 mmHg 64%
12:00 +20°C° 0.1 mm 4 m/S 738 mmHg 62%
13:00 +20°C° 0.1 mm 4 m/S 738 mmHg 60%
14:00 +21°C° 0.1 mm 3 m/S 738 mmHg 58%
15:00 +20°C° 0.3 mm 3 m/S 738 mmHg 63%
16:00 +20°C° 0.3 mm 3 m/S 738 mmHg 68%
17:00 +19°C° 0.3 mm 2 m/S 738 mmHg 73%
18:00 +18°C° 0.3 mm 2 m/S 738 mmHg 78%
19:00 +16°C° 0.3 mm 2 m/S 738 mmHg 83%
20:00 +15°C° 0.3 mm 2 m/S 738 mmHg 88%
21:00 +14°C° 0.3 mm 2 m/S 738 mmHg 89%
22:00 +14°C° 0.3 mm 2 m/S 738 mmHg 89%
23:00 +14°C° 0.3 mm 2 m/S 738 mmHg 90%

15 Mai, Samstag

Zeit Temperatur Niederschläge Wind Luftdruck Luftfeuchtigkeit
00:00 +14°C° 0.1 mm 2 m/S 738 mmHg 90%
01:00 +14°C° 0.1 mm 1 m/S 738 mmHg 90%
02:00 +14°C° 0.1 mm 1 m/S 738 mmHg 91%
03:00 +13°C° 0 mm 1 m/S 738 mmHg 91%
04:00 +13°C° 0 mm 1 m/S 738 mmHg 91%
05:00 +13°C° 0 mm 1 m/S 738 mmHg 92%
06:00 +14°C° 0.1 mm 1 m/S 738 mmHg 90%
07:00 +15°C° 0.1 mm 1 m/S 739 mmHg 89%
08:00 +15°C° 0.1 mm 1 m/S 739 mmHg 87%
09:00 +16°C° 0.4 mm 1 m/S 739 mmHg 85%
10:00 +17°C° 0.4 mm 2 m/S 739 mmHg 83%
11:00 +17°C° 0.4 mm 2 m/S 739 mmHg 80%
12:00 +18°C° 0.4 mm 2 m/S 739 mmHg 79%
13:00 +18°C° 0.4 mm 3 m/S 739 mmHg 78%
14:00 +18°C° 0.4 mm 3 m/S 739 mmHg 77%
15:00 +18°C° 0.1 mm 3 m/S 739 mmHg 74%
16:00 +19°C° 0.1 mm 2 m/S 739 mmHg 71%
17:00 +19°C° 0.1 mm 2 m/S 739 mmHg 67%
18:00 +18°C° 0.1 mm 2 m/S 739 mmHg 73%
19:00 +16°C° 0.1 mm 2 m/S 739 mmHg 78%
20:00 +15°C° 0.1 mm 2 m/S 739 mmHg 84%
21:00 +14°C° 0 mm 2 m/S 739 mmHg 86%
22:00 +13°C° 0 mm 2 m/S 739 mmHg 88%
23:00 +12°C° 0 mm 2 m/S 739 mmHg 90%
Mehr zeigen

Wir brauchen deine Erlaubnis

Meteoprog und unser Service Anbieter werden persönliche Daten aufbewahren, so wie Cookies, Geräte Bezeichnung oder ähnliche Technologien von deinem Gerät und Prozess, so wie Persönliche Daten Inhalte und Werbungen, genauso wie social Media und den Verkehr zu analysieren.

  • Aufbewahrung und/oder Zugang zu deiner Geräte Informationen.

    Cookies, Geräte Bezeichnung oder andere Informationen, können aufbewahrt oder Zugang zu deinem Gerät erhalten, für den Grund, der oben angegeben wird.

  • Personalisierte Werbung und Inhalte, Messungen, Einblick in das Publikum und Produkt Entwicklung.

    Werbungen und Inhalte können personalisiert werden, basierend auf ein Profil. Mehr Daten können besser personalisierte Werbungen und Inhalte hinzufügen. Werbung und Inhalte können gezeigt und gemessen werden. Einblicke über das Publikum, welche die Werbung gesehen haben und den Inhalt, können abgeleitet werden. So wie Daten können genutzt werden, um es zu verbessern oder die Benutzer Erfahrung zu verbessern das System und die Software.

Wenn du “Ich stimme zu” klickst, erlaubst du uns, die Cookies zu benutzen die Geräte Bezeichnung, den Web oder ähnliche Technologien zu benutzen. Deine Settings, können in deinem Gerät bei deinem Browser geändert werden.

Für den bestimmten Zweck, berechtigten Interessen beruhen darauf, mehr als auf den Inhalt. Du kannst mehr darüber in unseren Privaten und Cookie Politik lesen.